Location: Unspecified
(41.8544°N, 0.0000°E)
Time: 01:42:54
(UTC+00:00)

OBJECT V - Visible Passes

Search period start: 05 April 2026 00:00
Search period end: 15 April 2026 00:00
Orbit: 729 x 749 km, 89.0° (Epoch: 29 March)

Date Brightness Start Highest point End Pass type
(mag) Time Alt. Az. Time Alt. Az. Time Alt. Az.
5 Apr ? 19:13:58 10° NNW 19:18:20 31° W 19:22:39 10° SW visible
7 Apr ? 19:24:22 10° NNW 19:28:02 21° WNW 19:31:40 10° SW visible
8 Apr ? 04:57:55 10° ESE 05:00:22 14° ENE 05:02:49 10° NE visible
9 Apr ? 19:35:13 10° NW 19:37:40 14° WNW 19:40:07 10° WSW visible
13 Apr ? 04:33:11 10° E 04:35:19 13° ENE 04:37:27 10° NE visible
14 Apr ? 19:09:56 10° NW 19:12:36 15° WNW 19:15:17 10° WSW visible
